Location: Tamazert
(32.6352°N, 5.2072°W)
Time: 03:49:51
(UTC+00:00)

Vanguard 2 Rocket - Pass Details

Date: 12 October 2022
Orbit: 555 x 3321 km, 32.9° (Epoch: 05 December)

Event Time Altitude Azimuth Distance (km) Brightness Sun altitude
Rises 20:03:17 0° 246° (WSW) 7,122 12.3 -28.4°
Reaches altitude 10° 20:07:54 10° 245° (WSW) 6,220 11.8 -29.4°
Maximum altitude 20:28:27 79° 162° (SSE) 3,087 9.3 -33.6°
Enters shadow 20:33:55 55° 90° (E) 3,220 9.1 -34.8°
Drops below altitude 10° 20:43:41 10° 79° (E) 4,816 - -36.7°
Sets 20:46:45 0° 78° (ENE) 5,518 - -37.4°
